Time,TemperatureF,DewpointF,PressureIn,WindDirection,WindDirectionDegrees,WindSpeedMPH,WindSpeedGustMPH,Humidity,HourlyPrecipIn,Conditions,Clouds,dailyrainin,SoftwareType,DateUTC
2013-05-16 00:04:00,67.5,26.2,29.67,North,5,0.0,0.0,21,0.00,,,0.00,meteobridge,2013-05-16 06:04:00,
2013-05-16 00:09:00,66.2,26.2,29.67,North,5,0.0,0.9,22,0.00,,,0.00,meteobridge,2013-05-16 06:09:00,
2013-05-16 00:14:00,66.6,26.6,29.67,North,5,0.0,0.0,22,0.00,,,0.00,meteobridge,2013-05-16 06:14:00,
2013-05-16 00:20:00,65.8,27.0,29.67,North,5,0.0,0.0,23,0.00,,,0.00,meteobridge,2013-05-16 06:20:00,
2013-05-16 00:25:00,65.3,26.6,29.67,North,5,0.9,0.9,23,0.00,,,0.00,meteobridge,2013-05-16 06:25:00,
2013-05-16 00:30:00,64.6,27.0,29.68,North,5,0.0,0.0,24,0.00,,,0.00,meteobridge,2013-05-16 06:30:00,
2013-05-16 00:35:00,64.2,26.6,29.68,North,5,0.0,0.9,24,0.00,,,0.00,meteobridge,2013-05-16 06:35:00,
2013-05-16 00:40:00,63.9,27.3,29.68,North,5,0.0,0.0,25,0.00,,,0.00,meteobridge,2013-05-16 06:40:00,
2013-05-16 00:45:00,63.5,28.0,29.68,NNE,28,0.0,0.9,26,0.00,,,0.00,meteobridge,2013-05-16 06:45:00,
2013-05-16 00:50:00,63.7,27.1,29.68,NNE,28,0.0,0.0,25,0.00,,,0.00,meteobridge,2013-05-16 06:50:00,
2013-05-16 00:56:00,63.3,25.9,29.67,WSW,252,0.0,0.0,24,0.00,,,0.00,meteobridge,2013-05-16 06:56:00,
2013-05-16 01:01:00,63.9,27.3,29.68,WSW,253,0.0,0.9,25,0.00,,,0.00,meteobridge,2013-05-16 07:01:00,
2013-05-16 01:06:00,64.0,25.5,29.68,WSW,257,0.9,2.9,23,0.00,,,0.00,meteobridge,2013-05-16 07:06:00,
2013-05-16 01:11:00,64.9,24.1,29.68,WSW,257,0.0,0.9,21,0.00,,,0.00,meteobridge,2013-05-16 07:11:00,
2013-05-16 01:16:00,65.7,24.6,29.67,WSW,257,0.0,0.9,21,0.00,,,0.00,meteobridge,2013-05-16 07:16:00,
2013-05-16 01:21:00,65.7,24.6,29.68,WSW,257,0.0,0.9,21,0.00,,,0.00,meteobridge,2013-05-16 07:21:00,
2013-05-16 01:26:00,65.8,23.7,29.68,WSW,242,0.0,2.9,20,0.00,,,0.00,meteobridge,2013-05-16 07:26:00,
2013-05-16 01:32:00,66.4,24.1,29.68,WSW,241,0.0,2.9,20,0.00,,,0.00,meteobridge,2013-05-16 07:32:00,
2013-05-16 01:37:00,66.6,24.3,29.68,WSW,242,0.9,2.0,20,0.00,,,0.00,meteobridge,2013-05-16 07:37:00,
2013-05-16 01:42:00,66.6,24.3,29.67,WSW,249,0.9,2.9,20,0.00,,,0.00,meteobridge,2013-05-16 07:42:00,
2013-05-16 01:47:00,66.6,24.3,29.68,WSW,250,0.0,0.0,20,0.00,,,0.00,meteobridge,2013-05-16 07:47:00,
2013-05-16 01:53:00,66.0,23.7,29.67,WSW,251,0.0,0.0,20,0.00,,,0.00,meteobridge,2013-05-16 07:53:00,
2013-05-16 01:58:00,65.7,24.6,29.68,WSW,251,0.0,0.9,21,0.00,,,0.00,meteobridge,2013-05-16 07:58:00,
2013-05-16 02:03:00,64.2,24.6,29.68,SSW,211,0.0,0.9,22,0.00,,,0.00,meteobridge,2013-05-16 08:03:00,
2013-05-16 02:08:00,63.3,25.9,29.68,SSW,211,0.0,0.0,24,0.00,,,0.00,meteobridge,2013-05-16 08:08:00,
2013-05-16 02:13:00,62.6,26.2,29.68,SSW,211,0.0,0.9,25,0.00,,,0.00,meteobridge,2013-05-16 08:13:00,
2013-05-16 02:18:00,62.4,27.1,29.68,SSE,157,0.9,0.9,26,0.00,,,0.00,meteobridge,2013-05-16 08:18:00,
2013-05-16 02:23:00,62.4,26.1,29.68,SSE,156,0.0,0.9,25,0.00,,,0.00,meteobridge,2013-05-16 08:23:00,
2013-05-16 02:29:00,61.9,26.6,29.68,SSE,156,0.0,0.0,26,0.00,,,0.00,meteobridge,2013-05-16 08:29:00,
2013-05-16 02:34:00,61.2,26.1,29.68,SSE,156,2.0,2.0,26,0.00,,,0.00,meteobridge,2013-05-16 08:34:00,
2013-05-16 02:39:00,61.0,27.7,29.69,SSE,155,0.9,0.9,28,0.00,,,0.00,meteobridge,2013-05-16 08:39:00,
2013-05-16 02:44:00,60.6,26.4,29.68,SSE,155,0.9,0.9,27,0.00,,,0.00,meteobridge,2013-05-16 08:44:00,
2013-05-16 02:49:00,61.5,25.3,29.68,SSE,155,0.0,0.9,25,0.00,,,0.00,meteobridge,2013-05-16 08:49:00,
2013-05-16 02:54:00,62.1,25.9,29.69,SSE,155,0.0,2.9,25,0.00,,,0.00,meteobridge,2013-05-16 08:54:00,
2013-05-16 02:59:00,62.2,25.0,29.69,South,178,0.0,2.9,24,0.00,,,0.00,meteobridge,2013-05-16 08:59:00,
2013-05-16 03:05:00,62.1,26.8,29.68,South,178,0.9,0.9,26,0.00,,,0.00,meteobridge,2013-05-16 09:05:00,
2013-05-16 03:10:00,61.2,26.1,29.68,South,178,0.9,2.0,26,0.00,,,0.00,meteobridge,2013-05-16 09:10:00,
2013-05-16 03:15:00,62.1,25.9,29.68,SSE,166,0.0,0.9,25,0.00,,,0.00,meteobridge,2013-05-16 09:15:00,
2013-05-16 03:20:00,62.2,25.0,29.68,SSE,166,0.9,0.9,24,0.00,,,0.00,meteobridge,2013-05-16 09:20:00,
2013-05-16 03:25:00,62.1,25.9,29.69,SSE,166,0.0,0.9,25,0.00,,,0.00,meteobridge,2013-05-16 09:25:00,
2013-05-16 03:31:00,61.5,25.3,29.69,SSE,166,0.0,0.9,25,0.00,,,0.00,meteobridge,2013-05-16 09:31:00,
2013-05-16 03:36:00,61.0,25.9,29.69,SSE,166,0.0,0.0,26,0.00,,,0.00,meteobridge,2013-05-16 09:36:00,
2013-05-16 03:41:00,60.4,25.3,29.69,SE,144,0.0,0.9,26,0.00,,,0.00,meteobridge,2013-05-16 09:41:00,
2013-05-16 03:46:00,60.3,26.1,29.69,SE,144,0.0,0.9,27,0.00,,,0.00,meteobridge,2013-05-16 09:46:00,
2013-05-16 03:52:00,60.1,25.2,29.69,SE,134,0.0,2.0,26,0.00,,,0.00,meteobridge,2013-05-16 09:52:00,
2013-05-16 03:57:00,59.7,25.7,29.69,ESE,117,0.9,2.0,27,0.00,,,0.00,meteobridge,2013-05-16 09:57:00,
2013-05-16 04:02:00,59.7,24.8,29.69,East,87,2.0,4.9,26,0.00,,,0.00,meteobridge,2013-05-16 10:02:00,
2013-05-16 04:07:00,59.5,24.6,29.69,East,94,0.9,4.9,26,0.00,,,0.00,meteobridge,2013-05-16 10:07:00,
2013-05-16 04:12:00,59.5,24.6,29.69,ESE,120,2.0,4.0,26,0.00,,,0.00,meteobridge,2013-05-16 10:12:00,
2013-05-16 04:17:00,59.2,24.3,29.69,ESE,122,0.9,4.9,26,0.00,,,0.00,meteobridge,2013-05-16 10:17:00,
2013-05-16 04:22:00,59.2,25.2,29.69,ESE,116,0.0,0.9,27,0.00,,,0.00,meteobridge,2013-05-16 10:22:00,
2013-05-16 04:27:00,59.0,25.0,29.69,SE,128,0.0,0.9,27,0.00,,,0.00,meteobridge,2013-05-16 10:27:00,
2013-05-16 04:32:00,58.8,25.0,29.69,ESE,123,0.0,2.9,27,0.00,,,0.00,meteobridge,2013-05-16 10:32:00,
2013-05-16 04:37:00,58.8,25.0,29.69,SE,140,2.0,2.9,27,0.00,,,0.00,meteobridge,2013-05-16 10:37:00,
2013-05-16 04:42:00,58.6,24.8,29.69,SE,128,0.0,2.9,27,0.00,,,0.00,meteobridge,2013-05-16 10:42:00,
2013-05-16 04:47:00,58.5,25.5,29.69,SE,139,2.0,2.9,28,0.00,,,0.00,meteobridge,2013-05-16 10:47:00,
2013-05-16 04:52:00,58.3,25.3,29.69,SSE,160,2.9,2.9,28,0.00,,,0.00,meteobridge,2013-05-16 10:52:00,
2013-05-16 04:57:00,58.3,24.4,29.69,SSE,155,2.0,4.0,27,0.00,,,0.00,meteobridge,2013-05-16 10:57:00,
2013-05-16 05:02:00,58.1,25.2,29.69,SE,137,0.9,2.9,28,0.00,,,0.00,meteobridge,2013-05-16 11:02:00,
2013-05-16 05:07:00,57.9,25.0,29.69,SE,140,0.0,2.9,28,0.00,,,0.00,meteobridge,2013-05-16 11:07:00,
2013-05-16 05:12:00,57.7,24.8,29.69,ESE,123,0.0,2.9,28,0.00,,,0.00,meteobridge,2013-05-16 11:12:00,
2013-05-16 05:17:00,57.7,24.8,29.69,ESE,123,0.9,2.9,28,0.00,,,0.00,meteobridge,2013-05-16 11:17:00,
2013-05-16 05:22:00,57.6,24.6,29.69,SE,124,0.0,2.0,28,0.00,,,0.00,meteobridge,2013-05-16 11:22:00,
2013-05-16 05:28:00,57.6,24.6,29.70,ESE,121,0.9,4.0,28,0.00,,,0.00,meteobridge,2013-05-16 11:28:00,
2013-05-16 05:33:00,57.6,24.6,29.70,SE,125,0.0,0.9,28,0.00,,,0.00,meteobridge,2013-05-16 11:33:00,
2013-05-16 05:38:00,57.4,24.6,29.70,SE,140,0.9,2.0,28,0.00,,,0.00,meteobridge,2013-05-16 11:38:00,
2013-05-16 05:43:00,57.6,24.6,29.70,SSE,157,0.0,2.0,28,0.00,,,0.00,meteobridge,2013-05-16 11:43:00,
2013-05-16 05:48:00,57.4,24.6,29.70,SSE,149,0.9,2.0,28,0.00,,,0.00,meteobridge,2013-05-16 11:48:00,
2013-05-16 05:53:00,57.4,24.6,29.70,SE,124,2.9,2.9,28,0.00,,,0.00,meteobridge,2013-05-16 11:53:00,
2013-05-16 05:58:00,56.8,25.0,29.70,SE,145,0.9,2.0,29,0.00,,,0.00,meteobridge,2013-05-16 11:58:00,
2013-05-16 06:04:00,56.3,24.4,29.70,SE,145,0.0,0.0,29,0.00,,,0.00,meteobridge,2013-05-16 12:04:00,
2013-05-16 06:09:00,55.8,25.5,29.70,SE,145,0.0,2.0,31,0.00,,,0.00,meteobridge,2013-05-16 12:09:00,
2013-05-16 06:14:00,55.6,25.3,29.71,SE,128,0.9,2.0,31,0.00,,,0.00,meteobridge,2013-05-16 12:14:00,
2013-05-16 06:19:00,55.8,25.5,29.71,SE,128,0.0,0.9,31,0.00,,,0.00,meteobridge,2013-05-16 12:19:00,
2013-05-16 06:24:00,55.8,25.5,29.71,SE,128,0.0,2.0,31,0.00,,,0.00,meteobridge,2013-05-16 12:24:00,
2013-05-16 06:29:00,55.6,25.3,29.71,SE,128,0.0,0.9,31,0.00,,,0.00,meteobridge,2013-05-16 12:29:00,
2013-05-16 06:34:00,55.2,25.9,29.71,SE,128,0.0,0.0,32,0.00,,,0.00,meteobridge,2013-05-16 12:34:00,
2013-05-16 06:39:00,55.6,26.2,29.71,SE,128,0.0,0.9,32,0.00,,,0.00,meteobridge,2013-05-16 12:39:00,
2013-05-16 06:44:00,55.8,26.4,29.72,ESE,111,0.9,2.0,32,0.00,,,0.00,meteobridge,2013-05-16 12:44:00,
2013-05-16 06:49:00,55.9,26.4,29.72,ESE,111,0.0,0.9,32,0.00,,,0.00,meteobridge,2013-05-16 12:49:00,
2013-05-16 06:54:00,56.5,26.2,29.72,ESE,111,0.0,0.9,31,0.00,,,0.00,meteobridge,2013-05-16 12:54:00,
2013-05-16 06:59:00,57.0,26.6,29.72,ESE,111,0.9,2.0,31,0.00,,,0.00,meteobridge,2013-05-16 12:59:00,
2013-05-16 07:04:00,57.6,26.4,29.72,SE,145,0.9,2.0,30,0.00,,,0.00,meteobridge,2013-05-16 13:04:00,
2013-05-16 07:10:00,57.7,27.3,29.73,SE,130,0.0,2.0,31,0.00,,,0.00,meteobridge,2013-05-16 13:10:00,
2013-05-16 07:15:00,58.3,27.9,29.73,SE,131,0.0,2.0,31,0.00,,,0.00,meteobridge,2013-05-16 13:15:00,
2013-05-16 07:20:00,58.6,28.0,29.73,SE,144,2.0,2.0,31,0.00,,,0.00,meteobridge,2013-05-16 13:20:00,
2013-05-16 07:25:00,59.2,27.7,29.73,SE,140,2.9,4.0,30,0.00,,,0.00,meteobridge,2013-05-16 13:25:00,
2013-05-16 07:30:00,59.7,27.3,29.73,SE,142,2.0,4.0,29,0.00,,,0.00,meteobridge,2013-05-16 13:30:00,
2013-05-16 07:35:00,60.3,27.0,29.73,South,173,2.0,2.9,28,0.00,,,0.00,meteobridge,2013-05-16 13:35:00,
2013-05-16 07:40:00,61.0,26.8,29.74,SSE,152,6.0,6.0,27,0.00,,,0.00,meteobridge,2013-05-16 13:40:00,
2013-05-16 07:45:00,61.5,26.2,29.74,SSE,152,2.9,4.9,26,0.00,,,0.00,meteobridge,2013-05-16 13:45:00,
2013-05-16 07:50:00,62.2,27.0,29.74,SSE,156,0.9,2.9,26,0.00,,,0.00,meteobridge,2013-05-16 13:50:00,
2013-05-16 07:55:00,63.0,26.6,29.74,SSE,152,0.9,2.0,25,0.00,,,0.00,meteobridge,2013-05-16 13:55:00,
2013-05-16 08:00:00,63.7,26.2,29.74,SSE,159,0.9,0.9,24,0.00,,,0.00,meteobridge,2013-05-16 14:00:00,
2013-05-16 08:05:00,64.4,25.7,29.74,South,178,2.0,2.9,23,0.00,,,0.00,meteobridge,2013-05-16 14:05:00,
2013-05-16 08:10:00,64.9,26.2,29.74,SSE,165,4.0,4.0,23,0.00,,,0.00,meteobridge,2013-05-16 14:10:00,
2013-05-16 08:15:00,65.3,25.5,29.74,SSE,161,2.0,2.9,22,0.00,,,0.00,meteobridge,2013-05-16 14:15:00,
2013-05-16 08:20:00,65.7,25.7,29.74,SE,132,0.9,4.0,22,0.00,,,0.00,meteobridge,2013-05-16 14:20:00,
2013-05-16 08:25:00,66.4,26.4,29.74,South,170,2.9,4.0,22,0.00,,,0.00,meteobridge,2013-05-16 14:25:00,
2013-05-16 08:31:00,66.6,26.6,29.74,SSE,150,4.9,6.9,22,0.00,,,0.00,meteobridge,2013-05-16 14:31:00,
2013-05-16 08:36:00,67.1,27.0,29.75,SSE,147,0.9,4.9,22,0.00,,,0.00,meteobridge,2013-05-16 14:36:00,
2013-05-16 08:41:00,67.8,25.3,29.74,South,186,2.0,4.0,20,0.00,,,0.00,meteobridge,2013-05-16 14:41:00,
2013-05-16 08:46:00,67.8,25.3,29.74,SSE,167,0.9,2.0,20,0.00,,,0.00,meteobridge,2013-05-16 14:46:00,
2013-05-16 08:51:00,67.6,25.2,29.74,SSW,200,0.9,2.9,20,0.00,,,0.00,meteobridge,2013-05-16 14:51:00,
2013-05-16 08:56:00,67.8,25.3,29.74,WSW,238,0.9,4.0,20,0.00,,,0.00,meteobridge,2013-05-16 14:56:00,
2013-05-16 09:01:00,68.5,25.9,29.74,SW,230,0.9,2.9,20,0.00,,,0.00,meteobridge,2013-05-16 15:01:00,
2013-05-16 09:06:00,68.7,23.5,29.74,SW,229,0.9,4.0,18,0.00,,,0.00,meteobridge,2013-05-16 15:06:00,
2013-05-16 09:11:00,69.6,25.5,29.74,SSW,193,0.9,2.9,19,0.00,,,0.00,meteobridge,2013-05-16 15:11:00,
2013-05-16 09:16:00,70.2,24.6,29.74,SSW,209,0.9,2.9,18,0.00,,,0.00,meteobridge,2013-05-16 15:16:00,
2013-05-16 09:21:00,70.7,26.4,29.74,South,180,0.9,2.0,19,0.00,,,0.00,meteobridge,2013-05-16 15:21:00,
2013-05-16 09:26:00,70.3,24.8,29.74,South,185,2.0,2.9,18,0.00,,,0.00,meteobridge,2013-05-16 15:26:00,
2013-05-16 09:31:00,70.5,25.0,29.74,WSW,248,2.0,2.0,18,0.00,,,0.00,meteobridge,2013-05-16 15:31:00,
2013-05-16 09:36:00,71.1,24.1,29.74,WSW,242,0.0,2.9,17,0.00,,,0.00,meteobridge,2013-05-16 15:36:00,
2013-05-16 09:41:00,72.1,26.2,29.74,SSW,193,2.0,4.0,18,0.00,,,0.00,meteobridge,2013-05-16 15:41:00,
2013-05-16 09:47:00,72.1,25.0,29.74,SSW,203,0.9,4.0,17,0.00,,,0.00,meteobridge,2013-05-16 15:47:00,
2013-05-16 09:52:00,72.7,25.3,29.73,SE,136,2.0,2.9,17,0.00,,,0.00,meteobridge,2013-05-16 15:52:00,
2013-05-16 09:57:00,73.2,24.3,29.73,SSW,194,0.0,2.9,16,0.00,,,0.00,meteobridge,2013-05-16 15:57:00,
2013-05-16 10:02:00,73.8,21.6,29.73,SSW,197,2.0,2.9,14,0.00,,,0.00,meteobridge,2013-05-16 16:02:00,
2013-05-16 10:07:00,73.9,23.4,29.73,SE,134,2.0,2.9,15,0.00,,,0.00,meteobridge,2013-05-16 16:07:00,
2013-05-16 10:12:00,73.6,23.0,29.73,SW,231,2.9,4.0,15,0.00,,,0.00,meteobridge,2013-05-16 16:12:00,
2013-05-16 10:17:00,73.2,22.8,29.73,NE,53,2.0,2.9,15,0.00,,,0.00,meteobridge,2013-05-16 16:17:00,
2013-05-16 10:22:00,74.1,25.0,29.73,SE,128,2.0,4.9,16,0.00,,,0.00,meteobridge,2013-05-16 16:22:00,
2013-05-16 10:27:00,74.8,22.5,29.73,SSW,194,0.0,4.9,14,0.00,,,0.00,meteobridge,2013-05-16 16:27:00,
2013-05-16 10:32:00,76.1,23.4,29.73,WNW,300,0.9,2.0,14,0.00,,,0.00,meteobridge,2013-05-16 16:32:00,
2013-05-16 10:37:00,76.5,21.9,29.73,NE,38,0.0,2.9,13,0.00,,,0.00,meteobridge,2013-05-16 16:37:00,
2013-05-16 10:42:00,76.6,20.3,29.73,WSW,242,0.9,6.0,12,0.00,,,0.00,meteobridge,2013-05-16 16:42:00,
2013-05-16 10:47:00,75.9,21.6,29.72,ENE,74,2.0,4.0,13,0.00,,,0.00,meteobridge,2013-05-16 16:47:00,
2013-05-16 10:52:00,76.8,22.3,29.72,East,84,2.9,2.9,13,0.00,,,0.00,meteobridge,2013-05-16 16:52:00,
2013-05-16 10:57:00,76.8,22.3,29.72,SSE,148,6.0,6.9,13,0.00,,,0.00,meteobridge,2013-05-16 16:57:00,
2013-05-16 11:02:00,77.2,22.5,29.72,SE,140,2.9,4.0,13,0.00,,,0.00,meteobridge,2013-05-16 17:02:00,
2013-05-16 11:07:00,77.5,22.8,29.72,NNW,340,2.9,4.9,13,0.00,,,0.00,meteobridge,2013-05-16 17:07:00,
2013-05-16 11:12:00,78.3,23.4,29.72,SW,236,2.0,4.0,13,0.00,,,0.00,meteobridge,2013-05-16 17:12:00,
2013-05-16 11:17:00,78.3,21.6,29.72,NW,325,2.0,2.0,12,0.00,,,0.00,meteobridge,2013-05-16 17:17:00,
2013-05-16 11:22:00,79.0,23.9,29.71,South,189,2.0,2.9,13,0.00,,,0.00,meteobridge,2013-05-16 17:22:00,
2013-05-16 11:27:00,79.2,22.1,29.71,South,183,2.9,6.9,12,0.00,,,0.00,meteobridge,2013-05-16 17:27:00,
2013-05-16 11:32:00,79.0,22.1,29.71,SSE,155,2.9,4.0,12,0.00,,,0.00,meteobridge,2013-05-16 17:32:00,
2013-05-16 11:38:00,78.8,21.9,29.70,West,272,0.9,4.9,12,0.00,,,0.00,meteobridge,2013-05-16 17:38:00,
2013-05-16 11:43:00,78.6,19.8,29.70,NNE,15,0.0,2.0,11,0.00,,,0.00,meteobridge,2013-05-16 17:43:00,
2013-05-16 11:48:00,79.3,20.3,29.70,East,82,0.9,4.9,11,0.00,,,0.00,meteobridge,2013-05-16 17:48:00,
2013-05-16 11:53:00,80.1,22.8,29.70,SSE,151,2.0,4.9,12,0.00,,,0.00,meteobridge,2013-05-16 17:53:00,
2013-05-16 11:58:00,79.5,20.5,29.70,South,181,4.0,4.9,11,0.00,,,0.00,meteobridge,2013-05-16 17:58:00,
2013-05-16 12:03:00,81.0,23.5,29.69,SE,137,2.0,2.9,12,0.00,,,0.00,meteobridge,2013-05-16 18:03:00,
2013-05-16 12:08:00,80.8,21.4,29.69,SW,221,4.9,8.1,11,0.00,,,0.00,meteobridge,2013-05-16 18:08:00,
2013-05-16 12:13:00,81.3,21.7,29.69,NW,325,2.0,4.0,11,0.00,,,0.00,meteobridge,2013-05-16 18:13:00,
2013-05-16 12:18:00,81.1,21.6,29.68,NNW,348,2.9,4.0,11,0.00,,,0.00,meteobridge,2013-05-16 18:18:00,
2013-05-16 12:23:00,81.9,19.9,29.68,SW,216,2.0,4.0,10,0.00,,,0.00,meteobridge,2013-05-16 18:23:00,
2013-05-16 12:28:00,81.0,21.6,29.67,ENE,71,0.9,4.9,11,0.00,,,0.00,meteobridge,2013-05-16 18:28:00,
2013-05-16 12:33:00,81.5,19.8,29.67,NNE,27,2.9,6.0,10,0.00,,,0.00,meteobridge,2013-05-16 18:33:00,
2013-05-16 12:38:00,82.0,20.1,29.67,North,5,2.9,4.9,10,0.00,,,0.00,meteobridge,2013-05-16 18:38:00,
2013-05-16 12:43:00,81.3,19.6,29.66,NNE,13,0.9,2.9,10,0.00,,,0.00,meteobridge,2013-05-16 18:43:00,
2013-05-16 12:48:00,81.7,22.1,29.66,SE,124,4.0,8.1,11,0.00,,,0.00,meteobridge,2013-05-16 18:48:00,
2013-05-16 12:53:00,82.6,22.8,29.66,NE,38,2.9,2.9,11,0.00,,,0.00,meteobridge,2013-05-16 18:53:00,
2013-05-16 12:58:00,83.1,20.8,29.65,West,259,4.9,6.9,10,0.00,,,0.00,meteobridge,2013-05-16 18:58:00,
2013-05-16 13:03:00,82.0,22.3,29.65,NW,305,0.0,4.0,11,0.00,,,0.00,meteobridge,2013-05-16 19:03:00,
2013-05-16 13:09:00,82.6,20.5,29.65,SSW,200,2.0,6.9,10,0.00,,,0.00,meteobridge,2013-05-16 19:09:00,
2013-05-16 13:14:00,83.5,16.0,29.65,WSW,239,6.9,11.0,8,0.00,,,0.00,meteobridge,2013-05-16 19:14:00,
2013-05-16 13:19:00,83.1,12.7,29.65,South,182,4.9,8.9,7,0.00,,,0.00,meteobridge,2013-05-16 19:19:00,
2013-05-16 13:24:00,82.6,15.3,29.65,WSW,239,2.9,6.0,8,0.00,,,0.00,meteobridge,2013-05-16 19:24:00,
2013-05-16 13:29:00,83.8,16.3,29.64,SW,227,4.0,6.9,8,0.00,,,0.00,meteobridge,2013-05-16 19:29:00,
2013-05-16 13:34:00,84.9,17.1,29.64,WSW,244,6.9,11.0,8,0.00,,,0.00,meteobridge,2013-05-16 19:34:00,
2013-05-16 13:39:00,84.4,13.6,29.64,SSW,207,2.9,11.0,7,0.00,,,0.00,meteobridge,2013-05-16 19:39:00,
2013-05-16 13:44:00,84.4,13.6,29.64,SW,219,8.1,8.9,7,0.00,,,0.00,meteobridge,2013-05-16 19:44:00,
2013-05-16 13:49:00,84.7,16.9,29.64,WSW,249,2.9,11.0,8,0.00,,,0.00,meteobridge,2013-05-16 19:49:00,
2013-05-16 13:54:00,85.3,14.2,29.64,SSE,157,6.9,6.9,7,0.00,,,0.00,meteobridge,2013-05-16 19:54:00,
2013-05-16 13:59:00,84.0,13.3,29.63,WSW,244,0.9,8.1,7,0.00,,,0.00,meteobridge,2013-05-16 19:59:00,
2013-05-16 14:04:00,85.6,14.5,29.63,SW,231,6.9,8.9,7,0.00,,,0.00,meteobridge,2013-05-16 20:04:00,
2013-05-16 14:09:00,85.6,14.5,29.63,SW,236,12.1,12.1,7,0.00,,,0.00,meteobridge,2013-05-16 20:09:00,
2013-05-16 14:14:00,85.6,10.9,29.63,SSW,213,4.0,8.1,6,0.00,,,0.00,meteobridge,2013-05-16 20:14:00,
2013-05-16 14:19:00,84.6,13.6,29.63,WSW,247,4.0,8.9,7,0.00,,,0.00,meteobridge,2013-05-16 20:19:00,
2013-05-16 14:24:00,85.5,17.4,29.62,NE,42,2.9,4.9,8,0.00,,,0.00,meteobridge,2013-05-16 20:24:00,
2013-05-16 14:29:00,86.5,11.7,29.62,West,267,4.9,14.1,6,0.00,,,0.00,meteobridge,2013-05-16 20:29:00,
2013-05-16 14:34:00,86.4,15.1,29.62,SW,223,8.1,12.1,7,0.00,,,0.00,meteobridge,2013-05-16 20:34:00,
2013-05-16 14:39:00,85.8,14.7,29.62,West,259,2.9,8.1,7,0.00,,,0.00,meteobridge,2013-05-16 20:39:00,
2013-05-16 14:44:00,86.4,11.5,29.61,NNW,344,0.9,2.9,6,0.00,,,0.00,meteobridge,2013-05-16 20:44:00,
2013-05-16 14:49:00,85.6,17.6,29.61,SW,221,4.0,4.9,8,0.00,,,0.00,meteobridge,2013-05-16 20:49:00,
2013-05-16 14:55:00,87.1,15.6,29.61,SW,231,4.0,6.9,7,0.00,,,0.00,meteobridge,2013-05-16 20:55:00,
2013-05-16 15:00:00,87.1,12.0,29.61,NW,309,4.0,8.9,6,0.00,,,0.00,meteobridge,2013-05-16 21:00:00,
2013-05-16 15:05:00,87.1,15.6,29.60,ENE,73,2.0,8.1,7,0.00,,,0.00,meteobridge,2013-05-16 21:05:00,
2013-05-16 15:10:00,87.4,15.8,29.60,SSW,212,4.9,8.9,7,0.00,,,0.00,meteobridge,2013-05-16 21:10:00,
2013-05-16 15:15:00,87.1,12.0,29.60,West,275,4.0,10.1,6,0.00,,,0.00,meteobridge,2013-05-16 21:15:00,
2013-05-16 15:20:00,86.7,11.8,29.60,SSW,205,4.9,12.1,6,0.00,,,0.00,meteobridge,2013-05-16 21:20:00,
2013-05-16 15:25:00,85.8,11.1,29.60,SSW,212,6.0,14.1,6,0.00,,,0.00,meteobridge,2013-05-16 21:25:00,
2013-05-16 15:30:00,86.4,15.1,29.59,West,266,6.9,8.1,7,0.00,,,0.00,meteobridge,2013-05-16 21:30:00,
2013-05-16 15:35:00,87.6,12.4,29.59,NW,325,4.0,4.9,6,0.00,,,0.00,meteobridge,2013-05-16 21:35:00,
2013-05-16 15:40:00,88.3,12.9,29.59,SSW,203,4.0,4.9,6,0.00,,,0.00,meteobridge,2013-05-16 21:40:00,
2013-05-16 15:45:00,87.8,8.4,29.58,WSW,243,0.9,8.9,5,0.00,,,0.00,meteobridge,2013-05-16 21:45:00,
2013-05-16 15:50:00,87.6,8.4,29.58,SW,225,4.9,6.9,5,0.00,,,0.00,meteobridge,2013-05-16 21:50:00,
2013-05-16 15:55:00,87.4,8.2,29.58,West,275,2.9,6.0,5,0.00,,,0.00,meteobridge,2013-05-16 21:55:00,
2013-05-16 16:00:00,87.4,8.2,29.58,SSW,211,4.9,10.1,5,0.00,,,0.00,meteobridge,2013-05-16 22:00:00,
2013-05-16 16:05:00,87.1,8.1,29.58,South,180,6.9,14.1,5,0.00,,,0.00,meteobridge,2013-05-16 22:05:00,
2013-05-16 16:10:00,87.1,8.1,29.57,WNW,303,2.0,10.1,5,0.00,,,0.00,meteobridge,2013-05-16 22:10:00,
2013-05-16 16:15:00,87.4,12.4,29.57,SW,233,2.0,6.0,6,0.00,,,0.00,meteobridge,2013-05-16 22:15:00,
2013-05-16 16:20:00,88.0,8.6,29.57,WSW,250,4.9,6.0,5,0.00,,,0.00,meteobridge,2013-05-16 22:20:00,
2013-05-16 16:25:00,88.0,8.6,29.57,WNW,282,2.9,8.1,5,0.00,,,0.00,meteobridge,2013-05-16 22:25:00,
2013-05-16 16:30:00,86.5,2.7,29.57,WSW,239,2.0,11.0,4,0.00,,,0.00,meteobridge,2013-05-16 22:30:00,
2013-05-16 16:35:00,87.3,12.2,29.57,WSW,240,4.0,8.1,6,0.00,,,0.00,meteobridge,2013-05-16 22:35:00,
2013-05-16 16:40:00,87.8,8.4,29.57,WNW,302,2.9,6.0,5,0.00,,,0.00,meteobridge,2013-05-16 22:40:00,
2013-05-16 16:45:00,87.4,8.2,29.56,SSW,204,4.0,6.0,5,0.00,,,0.00,meteobridge,2013-05-16 22:45:00,
2013-05-16 16:50:00,87.8,3.6,29.57,West,265,2.9,6.0,4,0.00,,,0.00,meteobridge,2013-05-16 22:50:00,
2013-05-16 16:55:00,88.0,8.6,29.56,West,269,6.0,8.9,5,0.00,,,0.00,meteobridge,2013-05-16 22:55:00,
2013-05-16 17:00:00,87.3,8.1,29.56,SW,236,4.0,4.9,5,0.00,,,0.00,meteobridge,2013-05-16 23:00:00,
2013-05-16 17:05:00,88.0,3.7,29.56,SW,227,4.9,4.9,4,0.00,,,0.00,meteobridge,2013-05-16 23:05:00,
2013-05-16 17:10:00,87.3,3.2,29.56,SSW,198,6.9,10.1,4,0.00,,,0.00,meteobridge,2013-05-16 23:10:00,
2013-05-16 17:15:00,86.9,3.0,29.55,WNW,283,2.9,8.1,4,0.00,,,0.00,meteobridge,2013-05-16 23:15:00,
2013-05-16 17:21:00,87.4,3.4,29.56,North,350,2.9,8.1,4,0.00,,,0.00,meteobridge,2013-05-16 23:21:00,
2013-05-16 17:26:00,87.6,-2.7,29.56,SSW,211,6.0,11.0,3,0.00,,,0.00,meteobridge,2013-05-16 23:26:00,
2013-05-16 17:31:00,86.7,2.8,29.55,SSW,205,2.9,10.1,4,0.00,,,0.00,meteobridge,2013-05-16 23:31:00,
2013-05-16 17:36:00,87.1,8.1,29.56,NW,313,2.0,6.0,5,0.00,,,0.00,meteobridge,2013-05-16 23:36:00,
2013-05-16 17:41:00,87.6,3.6,29.55,NNW,331,2.0,8.9,4,0.00,,,0.00,meteobridge,2013-05-16 23:41:00,
2013-05-16 17:46:00,87.4,3.4,29.55,SSW,203,2.0,4.0,4,0.00,,,0.00,meteobridge,2013-05-16 23:46:00,
2013-05-16 17:51:00,87.3,3.2,29.55,WSW,244,4.0,12.1,4,0.00,,,0.00,meteobridge,2013-05-16 23:51:00,
2013-05-16 17:56:00,87.1,3.0,29.55,WSW,248,4.0,8.1,4,0.00,,,0.00,meteobridge,2013-05-16 23:56:00,
2013-05-16 18:01:00,86.7,2.8,29.55,WSW,248,2.0,6.0,4,0.00,,,0.00,meteobridge,2013-05-17 00:01:00,
2013-05-16 18:06:00,86.9,3.0,29.55,SSW,208,4.0,8.1,4,0.00,,,0.00,meteobridge,2013-05-17 00:06:00,
2013-05-16 18:11:00,86.7,2.8,29.55,South,178,8.1,8.1,4,0.00,,,0.00,meteobridge,2013-05-17 00:11:00,
2013-05-16 18:16:00,86.5,2.7,29.55,West,259,4.9,6.9,4,0.00,,,0.00,meteobridge,2013-05-17 00:16:00,
2013-05-16 18:21:00,86.4,2.7,29.55,SW,230,4.9,8.9,4,0.00,,,0.00,meteobridge,2013-05-17 00:21:00,
2013-05-16 18:26:00,85.8,2.3,29.55,SW,225,4.0,8.9,4,0.00,,,0.00,meteobridge,2013-05-17 00:26:00,
2013-05-16 18:31:00,85.6,7.0,29.55,WNW,299,6.0,8.9,5,0.00,,,0.00,meteobridge,2013-05-17 00:31:00,
2013-05-16 18:36:00,85.3,6.8,29.55,SW,233,4.0,6.9,5,0.00,,,0.00,meteobridge,2013-05-17 00:36:00,
2013-05-16 18:41:00,85.3,6.8,29.54,SSW,211,2.0,8.9,5,0.00,,,0.00,meteobridge,2013-05-17 00:41:00,
2013-05-16 18:46:00,85.3,1.9,29.54,SW,232,2.9,8.1,4,0.00,,,0.00,meteobridge,2013-05-17 00:46:00,
2013-05-16 18:51:00,84.9,6.4,29.54,SW,223,0.9,8.1,5,0.00,,,0.00,meteobridge,2013-05-17 00:51:00,
2013-05-16 18:56:00,84.7,6.3,29.54,West,271,2.0,4.9,5,0.00,,,0.00,meteobridge,2013-05-17 00:56:00,
2013-05-16 19:01:00,84.4,6.1,29.55,South,176,2.9,10.1,5,0.00,,,0.00,meteobridge,2013-05-17 01:01:00,
2013-05-16 19:06:00,83.8,5.7,29.54,SSW,193,2.9,8.1,5,0.00,,,0.00,meteobridge,2013-05-17 01:06:00,
2013-05-16 19:11:00,83.7,5.5,29.54,NE,51,2.0,4.0,5,0.00,,,0.00,meteobridge,2013-05-17 01:11:00,
2013-05-16 19:16:00,83.5,5.4,29.55,SW,225,2.9,8.9,5,0.00,,,0.00,meteobridge,2013-05-17 01:16:00,
2013-05-16 19:21:00,83.1,5.2,29.55,WSW,248,2.0,8.9,5,0.00,,,0.00,meteobridge,2013-05-17 01:21:00,
2013-05-16 19:26:00,82.9,5.0,29.55,SSW,213,2.9,6.9,5,0.00,,,0.00,meteobridge,2013-05-17 01:26:00,
2013-05-16 19:31:00,82.6,4.8,29.54,WSW,258,2.9,4.9,5,0.00,,,0.00,meteobridge,2013-05-17 01:31:00,
2013-05-16 19:36:00,82.2,4.6,29.55,WSW,255,2.0,6.0,5,0.00,,,0.00,meteobridge,2013-05-17 01:36:00,
2013-05-16 19:41:00,82.0,4.5,29.55,WSW,255,4.9,6.9,5,0.00,,,0.00,meteobridge,2013-05-17 01:41:00,
2013-05-16 19:46:00,81.9,4.3,29.55,SW,226,2.0,6.9,5,0.00,,,0.00,meteobridge,2013-05-17 01:46:00,
2013-05-16 19:51:00,81.5,4.1,29.55,WSW,247,4.0,6.9,5,0.00,,,0.00,meteobridge,2013-05-17 01:51:00,
2013-05-16 19:56:00,81.3,3.9,29.55,SW,225,4.0,8.1,5,0.00,,,0.00,meteobridge,2013-05-17 01:56:00,
2013-05-16 20:01:00,81.0,3.7,29.55,WNW,288,0.0,2.0,5,0.00,,,0.00,meteobridge,2013-05-17 02:01:00,
2013-05-16 20:06:00,80.4,3.4,29.55,WNW,299,4.9,6.9,5,0.00,,,0.00,meteobridge,2013-05-17 02:06:00,
2013-05-16 20:11:00,80.2,3.2,29.56,SW,223,6.9,6.9,5,0.00,,,0.00,meteobridge,2013-05-17 02:11:00,
2013-05-16 20:16:00,80.1,3.0,29.56,WSW,258,2.9,6.9,5,0.00,,,0.00,meteobridge,2013-05-17 02:16:00,
2013-05-16 20:21:00,79.9,2.8,29.56,West,269,2.0,4.0,5,0.00,,,0.00,meteobridge,2013-05-17 02:21:00,
2013-05-16 20:26:00,79.5,2.7,29.56,WSW,248,4.0,6.9,5,0.00,,,0.00,meteobridge,2013-05-17 02:26:00,
2013-05-16 20:31:00,79.3,6.4,29.56,NNW,344,2.0,6.0,6,0.00,,,0.00,meteobridge,2013-05-17 02:31:00,
2013-05-16 20:36:00,79.3,6.4,29.56,West,280,2.0,4.0,6,0.00,,,0.00,meteobridge,2013-05-17 02:36:00,
2013-05-16 20:41:00,79.2,6.4,29.56,NNW,344,2.0,6.0,6,0.00,,,0.00,meteobridge,2013-05-17 02:41:00,
2013-05-16 20:46:00,79.3,6.4,29.56,NW,324,0.9,4.0,6,0.00,,,0.00,meteobridge,2013-05-17 02:46:00,
2013-05-16 20:51:00,79.2,6.4,29.56,NW,321,0.9,4.0,6,0.00,,,0.00,meteobridge,2013-05-17 02:51:00,
2013-05-16 20:56:00,78.6,5.9,29.57,NNW,342,0.0,0.9,6,0.00,,,0.00,meteobridge,2013-05-17 02:56:00,
2013-05-16 21:01:00,77.7,5.4,29.57,WNW,284,2.0,4.0,6,0.00,,,0.00,meteobridge,2013-05-17 03:01:00,
2013-05-16 21:06:00,77.2,8.2,29.57,WNW,296,0.0,0.9,7,0.00,,,0.00,meteobridge,2013-05-17 03:06:00,
2013-05-16 21:11:00,76.1,7.5,29.57,West,273,0.9,0.9,7,0.00,,,0.00,meteobridge,2013-05-17 03:11:00,
2013-05-16 21:16:00,75.7,7.3,29.57,West,273,0.0,0.9,7,0.00,,,0.00,meteobridge,2013-05-17 03:16:00,
2013-05-16 21:21:00,75.0,9.7,29.57,West,273,0.0,0.0,8,0.00,,,0.00,meteobridge,2013-05-17 03:21:00,
2013-05-16 21:27:00,74.1,9.0,29.57,West,273,0.0,0.0,8,0.00,,,0.00,meteobridge,2013-05-17 03:27:00,
2013-05-16 21:32:00,73.8,11.5,29.57,West,273,0.0,0.0,9,0.00,,,0.00,meteobridge,2013-05-17 03:32:00,
2013-05-16 21:37:00,72.9,13.1,29.58,West,273,0.0,0.0,10,0.00,,,0.00,meteobridge,2013-05-17 03:37:00,
2013-05-16 21:42:00,72.1,12.6,29.58,West,273,0.0,0.9,10,0.00,,,0.00,meteobridge,2013-05-17 03:42:00,
2013-05-16 21:47:00,72.0,12.4,29.58,West,273,0.0,0.0,10,0.00,,,0.00,meteobridge,2013-05-17 03:47:00,
2013-05-16 21:52:00,71.2,16.0,29.58,West,273,0.0,0.0,12,0.00,,,0.00,meteobridge,2013-05-17 03:52:00,
2013-05-16 21:57:00,70.7,13.6,29.58,West,273,0.0,0.0,11,0.00,,,0.00,meteobridge,2013-05-17 03:57:00,
2013-05-16 22:01:00,70.3,17.2,29.59,West,273,0.0,0.0,13,0.00,,,0.00,meteobridge,2013-05-17 04:01:00,
2013-05-16 22:02:00,70.2,17.1,29.59,West,273,0.0,0.0,13,0.00,,,0.00,meteobridge,2013-05-17 04:02:00,
2013-05-16 22:04:00,69.6,16.5,29.59,West,273,0.0,0.9,13,0.00,,,0.00,meteobridge,2013-05-17 04:04:00,
2013-05-16 22:09:00,69.1,16.2,29.59,West,273,0.0,0.0,13,0.00,,,0.00,meteobridge,2013-05-17 04:09:00,
2013-05-16 22:14:00,68.7,15.8,29.59,West,273,0.0,0.0,13,0.00,,,0.00,meteobridge,2013-05-17 04:14:00,
2013-05-16 22:19:00,68.4,17.2,29.59,West,273,0.0,0.0,14,0.00,,,0.00,meteobridge,2013-05-17 04:19:00,
2013-05-16 22:25:00,67.6,18.3,29.59,West,273,0.0,0.0,15,0.00,,,0.00,meteobridge,2013-05-17 04:25:00,
2013-05-16 22:30:00,67.6,16.7,29.60,West,273,0.0,0.9,14,0.00,,,0.00,meteobridge,2013-05-17 04:30:00,
2013-05-16 22:35:00,67.8,16.9,29.60,West,273,0.0,0.9,14,0.00,,,0.00,meteobridge,2013-05-17 04:35:00,
2013-05-16 22:40:00,67.6,19.8,29.60,West,273,0.0,0.0,16,0.00,,,0.00,meteobridge,2013-05-17 04:40:00,
2013-05-16 22:45:00,67.3,19.6,29.60,West,273,0.0,0.0,16,0.00,,,0.00,meteobridge,2013-05-17 04:45:00,
2013-05-16 22:50:00,67.3,19.6,29.60,West,273,0.0,0.0,16,0.00,,,0.00,meteobridge,2013-05-17 04:50:00,
2013-05-16 22:56:00,66.4,18.9,29.61,West,273,0.0,0.0,16,0.00,,,0.00,meteobridge,2013-05-17 04:56:00,
2013-05-16 23:01:00,65.8,19.8,29.61,West,273,0.0,0.9,17,0.00,,,0.00,meteobridge,2013-05-17 05:01:00,
2013-05-16 23:06:00,65.7,19.6,29.61,West,273,0.0,0.9,17,0.00,,,0.00,meteobridge,2013-05-17 05:06:00,
2013-05-16 23:11:00,66.0,19.9,29.61,West,273,0.0,0.0,17,0.00,,,0.00,meteobridge,2013-05-17 05:11:00,
2013-05-16 23:17:00,66.0,19.9,29.61,West,273,0.0,0.0,17,0.00,,,0.00,meteobridge,2013-05-17 05:17:00,
2013-05-16 23:22:00,66.0,17.1,29.61,North,0,0.0,0.9,15,0.00,,,0.00,meteobridge,2013-05-17 05:22:00,
2013-05-16 23:27:00,66.7,19.0,29.62,North,0,0.0,0.0,16,0.00,,,0.00,meteobridge,2013-05-17 05:27:00,
2013-05-16 23:32:00,66.9,19.2,29.62,North,0,0.0,0.0,16,0.00,,,0.00,meteobridge,2013-05-17 05:32:00,
2013-05-16 23:37:00,66.4,18.9,29.62,North,5,0.0,0.9,16,0.00,,,0.00,meteobridge,2013-05-17 05:37:00,
2013-05-16 23:42:00,65.8,21.2,29.62,NE,46,0.0,0.0,18,0.00,,,0.00,meteobridge,2013-05-17 05:42:00,
2013-05-16 23:48:00,64.9,20.5,29.62,NE,46,0.0,2.0,18,0.00,,,0.00,meteobridge,2013-05-17 05:48:00,
2013-05-16 23:53:00,64.8,18.9,29.62,NE,46,0.9,0.9,17,0.00,,,0.00,meteobridge,2013-05-17 05:53:00,
2013-05-16 23:58:00,64.6,20.1,29.63,NE,46,0.0,0.9,18,0.00,,,0.00,meteobridge,2013-05-17 05:58:00,